owner,sensor,date,latitude,longitude,sea_surface_height_above_sea_level,qcFlag 
TCOON,ioos:station:TCOON:524:1,2014-08-01T00:12:00Z,29.8672,-93.9310,1.594,1111122 
TCOON,ioos:station:TCOON:524:1,2014-08-01T01:12:00Z,29.8672,-93.9310,1.611,1111122 
TCOON,ioos:station:TCOON:524:1,2014-08-01T02:12:00Z,29.8672,-93.9310,1.637,1111122 
TCOON,ioos:station:TCOON:524:1,2014-08-01T03:12:00Z,29.8672,-93.9310,1.61,1111122 
TCOON,ioos:station:TCOON:524:1,2014-08-01T04:12:00Z,29.8672,-93.9310,1.555,1111122 
TCOON,ioos:station:TCOON:524:1,2014-08-01T05:12:00Z,29.8672,-93.9310,1.606,1111122 
TCOON,ioos:station:TCOON:524:1,2014-08-01T06:42:00Z,29.8672,-93.9310,1.604,1111122 
TCOON,ioos:station:TCOON:524:1,2014-08-01T07:06:00Z,29.8672,-93.9310,1.575,1111122 
TCOON,ioos:station:TCOON:524:1,2014-08-01T08:12:00Z,29.8672,-93.9310,1.578,1111122 
TCOON,ioos:station:TCOON:524:1,2014-08-01T09:12:00Z,29.8672,-93.9310,1.574,1111122 
TCOON,ioos:station:TCOON:524:1,2014-08-01T10:12:00Z,29.8672,-93.9310,1.6,1111122 
TCOON,ioos:station:TCOON:524:1,2014-08-01T11:12:00Z,29.8672,-93.9310,1.579,1111122 
TCOON,ioos:station:TCOON:524:1,2014-08-01T12:12:00Z,29.8672,-93.9310,1.646,1111122 
TCOON,ioos:station:TCOON:524:1,2014-08-01T13:12:00Z,29.8672,-93.9310,1.643,1111122 
TCOON,ioos:station:TCOON:524:1,2014-08-01T14:12:00Z,29.8672,-93.9310,1.681,1111122 
TCOON,ioos:station:TCOON:524:1,2014-08-01T15:12:00Z,29.8672,-93.9310,1.729,1111122 
TCOON,ioos:station:TCOON:524:1,2014-08-01T16:12:00Z,29.8672,-93.9310,1.669,1111122 
TCOON,ioos:station:TCOON:524:1,2014-08-01T17:12:00Z,29.8672,-93.9310,1.647,1111122 
TCOON,ioos:station:TCOON:524:1,2014-08-01T18:12:00Z,29.8672,-93.9310,1.611,1111122 
TCOON,ioos:station:TCOON:524:1,2014-08-01T19:12:00Z,29.8672,-93.9310,1.434,1111122 
TCOON,ioos:station:TCOON:524:1,2014-08-01T20:12:00Z,29.8672,-93.9310,1.513,1111122 
TCOON,ioos:station:TCOON:524:1,2014-08-01T21:12:00Z,29.8672,-93.9310,1.504,1111122 
TCOON,ioos:station:TCOON:524:1,2014-08-01T22:12:00Z,29.8672,-93.9310,1.482,1111122 
TCOON,ioos:station:TCOON:524:1,2014-08-01T23:12:00Z,29.8672,-93.9310,1.522,1111122 
TCOON,ioos:station:TCOON:524:1,2014-08-02T00:12:00Z,29.8672,-93.9310,1.523,1111122 
TCOON,ioos:station:TCOON:524:1,2014-08-02T01:12:00Z,29.8672,-93.9310,1.514,1111122 
TCOON,ioos:station:TCOON:524:1,2014-08-02T02:12:00Z,29.8672,-93.9310,1.515,1111122 
TCOON,ioos:station:TCOON:524:1,2014-08-02T03:12:00Z,29.8672,-93.9310,1.534,1111122 
TCOON,ioos:station:TCOON:524:1,2014-08-02T04:12:00Z,29.8672,-93.9310,1.529,1111122 
TCOON,ioos:station:TCOON:524:1,2014-08-02T05:12:00Z,29.8672,-93.9310,1.511,1111122 
TCOON,ioos:station:TCOON:524:1,2014-08-02T06:12:00Z,29.8672,-93.9310,1.48,1111122 
TCOON,ioos:station:TCOON:524:1,2014-08-02T07:30:00Z,29.8672,-93.9310,1.449,1111122 
TCOON,ioos:station:TCOON:524:1,2014-08-02T08:12:00Z,29.8672,-93.9310,1.451,1111122 
TCOON,ioos:station:TCOON:524:1,2014-08-02T09:12:00Z,29.8672,-93.9310,1.469,1111122 
TCOON,ioos:station:TCOON:524:1,2014-08-02T10:12:00Z,29.8672,-93.9310,1.494,1111122 
TCOON,ioos:station:TCOON:524:1,2014-08-02T11:18:00Z,29.8672,-93.9310,1.513,1111122 
TCOON,ioos:station:TCOON:524:1,2014-08-02T12:12:00Z,29.8672,-93.9310,1.537,1111122 
TCOON,ioos:station:TCOON:524:1,2014-08-02T13:12:00Z,29.8672,-93.9310,1.567,1111122 
TCOON,ioos:station:TCOON:524:1,2014-08-02T14:12:00Z,29.8672,-93.9310,1.549,1111122 
TCOON,ioos:station:TCOON:524:1,2014-08-02T15:12:00Z,29.8672,-93.9310,1.622,1111122 
TCOON,ioos:station:TCOON:524:1,2014-08-02T16:06:00Z,29.8672,-93.9310,1.606,1111122 
TCOON,ioos:station:TCOON:524:1,2014-08-02T17:12:00Z,29.8672,-93.9310,1.617,1111122 
TCOON,ioos:station:TCOON:524:1,2014-08-02T18:12:00Z,29.8672,-93.9310,1.554,1111122 
TCOON,ioos:station:TCOON:524:1,2014-08-02T19:12:00Z,29.8672,-93.9310,1.501,1111122 
TCOON,ioos:station:TCOON:524:1,2014-08-02T20:12:00Z,29.8672,-93.9310,1.47,1111122 
TCOON,ioos:station:TCOON:524:1,2014-08-02T21:12:00Z,29.8672,-93.9310,1.447,1111122 
TCOON,ioos:station:TCOON:524:1,2014-08-02T22:12:00Z,29.8672,-93.9310,1.432,1111122 
TCOON,ioos:station:TCOON:524:1,2014-08-02T23:12:00Z,29.8672,-93.9310,1.424,1111122 
TCOON,ioos:station:TCOON:524:1,2014-08-03T00:12:00Z,29.8672,-93.9310,1.435,1111122 
TCOON,ioos:station:TCOON:524:1,2014-08-03T01:12:00Z,29.8672,-93.9310,1.461,1111122 
TCOON,ioos:station:TCOON:524:1,2014-08-03T02:12:00Z,29.8672,-93.9310,1.498,1111122 
TCOON,ioos:station:TCOON:524:1,2014-08-03T03:12:00Z,29.8672,-93.9310,1.519,1111122 
TCOON,ioos:station:TCOON:524:1,2014-08-03T04:12:00Z,29.8672,-93.9310,1.539,1111122 
TCOON,ioos:station:TCOON:524:1,2014-08-03T05:12:00Z,29.8672,-93.9310,1.527,1111122 
TCOON,ioos:station:TCOON:524:1,2014-08-03T06:36:00Z,29.8672,-93.9310,1.544,1111122 
TCOON,ioos:station:TCOON:524:1,2014-08-03T07:06:00Z,29.8672,-93.9310,1.535,1111122 
TCOON,ioos:station:TCOON:524:1,2014-08-03T08:12:00Z,29.8672,-93.9310,1.558,1111122 
TCOON,ioos:station:TCOON:524:1,2014-08-03T09:12:00Z,29.8672,-93.9310,1.536,1111122 
TCOON,ioos:station:TCOON:524:1,2014-08-03T10:12:00Z,29.8672,-93.9310,1.546,1111122 
TCOON,ioos:station:TCOON:524:1,2014-08-03T11:12:00Z,29.8672,-93.9310,1.58,1111122 
TCOON,ioos:station:TCOON:524:1,2014-08-03T12:12:00Z,29.8672,-93.9310,1.582,1111122 
TCOON,ioos:station:TCOON:524:1,2014-08-03T13:12:00Z,29.8672,-93.9310,1.61,1111122 
TCOON,ioos:station:TCOON:524:1,2014-08-03T14:12:00Z,29.8672,-93.9310,1.603,1111122 
TCOON,ioos:station:TCOON:524:1,2014-08-03T15:12:00Z,29.8672,-93.9310,1.643,1111122 
TCOON,ioos:station:TCOON:524:1,2014-08-03T16:12:00Z,29.8672,-93.9310,1.638,1111122 
TCOON,ioos:station:TCOON:524:1,2014-08-03T17:12:00Z,29.8672,-93.9310,1.632,1111122 
TCOON,ioos:station:TCOON:524:1,2014-08-03T18:12:00Z,29.8672,-93.9310,1.568,1111122 
TCOON,ioos:station:TCOON:524:1,2014-08-03T19:12:00Z,29.8672,-93.9310,1.525,1111122 
TCOON,ioos:station:TCOON:524:1,2014-08-03T20:12:00Z,29.8672,-93.9310,1.502,1111122 
TCOON,ioos:station:TCOON:524:1,2014-08-03T21:12:00Z,29.8672,-93.9310,1.453,1111122 
TCOON,ioos:station:TCOON:524:1,2014-08-03T22:12:00Z,29.8672,-93.9310,1.527,1111122 
TCOON,ioos:station:TCOON:524:1,2014-08-03T23:12:00Z,29.8672,-93.9310,1.432,1111122 
TCOON,ioos:station:TCOON:524:1,2014-08-04T00:12:00Z,29.8672,-93.9310,1.478,1111122 
TCOON,ioos:station:TCOON:524:1,2014-08-04T01:12:00Z,29.8672,-93.9310,1.468,1111122 
TCOON,ioos:station:TCOON:524:1,2014-08-04T02:12:00Z,29.8672,-93.9310,1.49,1111122 
TCOON,ioos:station:TCOON:524:1,2014-08-04T03:12:00Z,29.8672,-93.9310,1.524,1111122 
TCOON,ioos:station:TCOON:524:1,2014-08-04T04:12:00Z,29.8672,-93.9310,1.569,1111122 
TCOON,ioos:station:TCOON:524:1,2014-08-04T05:12:00Z,29.8672,-93.9310,1.584,1111122 
TCOON,ioos:station:TCOON:524:1,2014-08-04T06:42:00Z,29.8672,-93.9310,1.609,1111122 
TCOON,ioos:station:TCOON:524:1,2014-08-04T07:12:00Z,29.8672,-93.9310,1.629,1111122 
TCOON,ioos:station:TCOON:524:1,2014-08-04T08:12:00Z,29.8672,-93.9310,1.629,1111122 
TCOON,ioos:station:TCOON:524:1,2014-08-04T09:12:00Z,29.8672,-93.9310,1.616,1111122 
TCOON,ioos:station:TCOON:524:1,2014-08-04T10:12:00Z,29.8672,-93.9310,1.671,1111122 
TCOON,ioos:station:TCOON:524:1,2014-08-04T11:12:00Z,29.8672,-93.9310,1.685,1111122 
TCOON,ioos:station:TCOON:524:1,2014-08-04T12:12:00Z,29.8672,-93.9310,1.672,1111122 
TCOON,ioos:station:TCOON:524:1,2014-08-04T13:12:00Z,29.8672,-93.9310,1.692,1111122 
TCOON,ioos:station:TCOON:524:1,2014-08-04T14:12:00Z,29.8672,-93.9310,1.717,1111122 
TCOON,ioos:station:TCOON:524:1,2014-08-04T15:06:00Z,29.8672,-93.9310,1.697,1111122 
TCOON,ioos:station:TCOON:524:1,2014-08-04T16:12:00Z,29.8672,-93.9310,1.671,1111122 
TCOON,ioos:station:TCOON:524:1,2014-08-04T17:12:00Z,29.8672,-93.9310,1.672,1111122 
TCOON,ioos:station:TCOON:524:1,2014-08-04T18:12:00Z,29.8672,-93.9310,1.629,1111122 
TCOON,ioos:station:TCOON:524:1,2014-08-04T19:12:00Z,29.8672,-93.9310,1.573,1111122 
TCOON,ioos:station:TCOON:524:1,2014-08-04T20:06:00Z,29.8672,-93.9310,1.536,1111122 
TCOON,ioos:station:TCOON:524:1,2014-08-04T21:12:00Z,29.8672,-93.9310,1.507,1111122 
TCOON,ioos:station:TCOON:524:1,2014-08-04T22:12:00Z,29.8672,-93.9310,1.476,1111122 
TCOON,ioos:station:TCOON:524:1,2014-08-04T23:12:00Z,29.8672,-93.9310,1.463,1111122 
TCOON,ioos:station:TCOON:524:1,2014-08-05T00:12:00Z,29.8672,-93.9310,1.405,1111122 
TCOON,ioos:station:TCOON:524:1,2014-08-05T01:12:00Z,29.8672,-93.9310,1.462,1111122 
TCOON,ioos:station:TCOON:524:1,2014-08-05T02:12:00Z,29.8672,-93.9310,1.475,1111122 
TCOON,ioos:station:TCOON:524:1,2014-08-05T03:12:00Z,29.8672,-93.9310,1.52,1111122 
TCOON,ioos:station:TCOON:524:1,2014-08-05T04:12:00Z,29.8672,-93.9310,1.553,1111122 
TCOON,ioos:station:TCOON:524:1,2014-08-05T05:12:00Z,29.8672,-93.9310,1.615,1111122 
TCOON,ioos:station:TCOON:524:1,2014-08-05T06:12:00Z,29.8672,-93.9310,1.658,1111122 
TCOON,ioos:station:TCOON:524:1,2014-08-05T07:12:00Z,29.8672,-93.9310,1.652,1111122 
TCOON,ioos:station:TCOON:524:1,2014-08-05T08:12:00Z,29.8672,-93.9310,1.678,1111122 
TCOON,ioos:station:TCOON:524:1,2014-08-05T09:12:00Z,29.8672,-93.9310,1.697,1111122 
TCOON,ioos:station:TCOON:524:1,2014-08-05T10:12:00Z,29.8672,-93.9310,1.704,1111122 
TCOON,ioos:station:TCOON:524:1,2014-08-05T11:12:00Z,29.8672,-93.9310,1.721,1111122 
TCOON,ioos:station:TCOON:524:1,2014-08-05T12:18:00Z,29.8672,-93.9310,1.708,1111122 
TCOON,ioos:station:TCOON:524:1,2014-08-05T13:12:00Z,29.8672,-93.9310,1.701,1111122 
TCOON,ioos:station:TCOON:524:1,2014-08-05T14:12:00Z,29.8672,-93.9310,1.675,1111122 
TCOON,ioos:station:TCOON:524:1,2014-08-05T15:12:00Z,29.8672,-93.9310,1.739,1111122 
TCOON,ioos:station:TCOON:524:1,2014-08-05T16:12:00Z,29.8672,-93.9310,1.71,1111122 
TCOON,ioos:station:TCOON:524:1,2014-08-05T17:12:00Z,29.8672,-93.9310,1.697,1111122 
TCOON,ioos:station:TCOON:524:1,2014-08-05T18:12:00Z,29.8672,-93.9310,1.663,1111122 
TCOON,ioos:station:TCOON:524:1,2014-08-05T19:12:00Z,29.8672,-93.9310,1.606,1111122 
TCOON,ioos:station:TCOON:524:1,2014-08-05T20:12:00Z,29.8672,-93.9310,1.584,1111122 
TCOON,ioos:station:TCOON:524:1,2014-08-05T21:18:00Z,29.8672,-93.9310,1.466,1111122 
TCOON,ioos:station:TCOON:524:1,2014-08-05T22:12:00Z,29.8672,-93.9310,1.425,1111122 
TCOON,ioos:station:TCOON:524:1,2014-08-05T23:12:00Z,29.8672,-93.9310,1.398,1111122 
TCOON,ioos:station:TCOON:524:1,2014-08-06T00:12:00Z,29.8672,-93.9310,1.369,1111122 
TCOON,ioos:station:TCOON:524:1,2014-08-06T01:12:00Z,29.8672,-93.9310,1.358,1111122 
TCOON,ioos:station:TCOON:524:1,2014-08-06T02:12:00Z,29.8672,-93.9310,1.402,1111122 
TCOON,ioos:station:TCOON:524:1,2014-08-06T03:18:00Z,29.8672,-93.9310,1.432,1111122 
TCOON,ioos:station:TCOON:524:1,2014-08-06T04:12:00Z,29.8672,-93.9310,1.489,1111122 
TCOON,ioos:station:TCOON:524:1,2014-08-06T05:12:00Z,29.8672,-93.9310,1.586,1111122 
TCOON,ioos:station:TCOON:524:1,2014-08-06T06:36:00Z,29.8672,-93.9310,1.633,1111122 
TCOON,ioos:station:TCOON:524:1,2014-08-06T07:12:00Z,29.8672,-93.9310,1.642,1111122 
TCOON,ioos:station:TCOON:524:1,2014-08-06T08:12:00Z,29.8672,-93.9310,1.634,1111122 
TCOON,ioos:station:TCOON:524:1,2014-08-06T09:12:00Z,29.8672,-93.9310,1.66,1111122 
TCOON,ioos:station:TCOON:524:1,2014-08-06T10:12:00Z,29.8672,-93.9310,1.689,1111122 
TCOON,ioos:station:TCOON:524:1,2014-08-06T11:06:00Z,29.8672,-93.9310,1.699,1111122 
TCOON,ioos:station:TCOON:524:1,2014-08-06T12:12:00Z,29.8672,-93.9310,1.68,1111122 
TCOON,ioos:station:TCOON:524:1,2014-08-06T13:12:00Z,29.8672,-93.9310,1.686,1111122 
TCOON,ioos:station:TCOON:524:1,2014-08-06T14:12:00Z,29.8672,-93.9310,1.7,1111122 
TCOON,ioos:station:TCOON:524:1,2014-08-06T15:12:00Z,29.8672,-93.9310,1.677,1111122 
TCOON,ioos:station:TCOON:524:1,2014-08-06T16:12:00Z,29.8672,-93.9310,1.715,1111122 
TCOON,ioos:station:TCOON:524:1,2014-08-06T17:12:00Z,29.8672,-93.9310,1.708,1111122 
TCOON,ioos:station:TCOON:524:1,2014-08-06T18:12:00Z,29.8672,-93.9310,1.69,1111122 
TCOON,ioos:station:TCOON:524:1,2014-08-06T19:12:00Z,29.8672,-93.9310,1.665,1111122 
TCOON,ioos:station:TCOON:524:1,2014-08-06T20:12:00Z,29.8672,-93.9310,1.624,1111122 
TCOON,ioos:station:TCOON:524:1,2014-08-06T21:12:00Z,29.8672,-93.9310,1.551,1111122 
TCOON,ioos:station:TCOON:524:1,2014-08-06T22:12:00Z,29.8672,-93.9310,1.475,1111122 
TCOON,ioos:station:TCOON:524:1,2014-08-06T23:12:00Z,29.8672,-93.9310,1.456,1111122 
TCOON,ioos:station:TCOON:524:1,2014-08-07T00:12:00Z,29.8672,-93.9310,1.395,1111122 
TCOON,ioos:station:TCOON:524:1,2014-08-07T01:12:00Z,29.8672,-93.9310,1.358,1111122 
TCOON,ioos:station:TCOON:524:1,2014-08-07T02:12:00Z,29.8672,-93.9310,1.375,1111122 
TCOON,ioos:station:TCOON:524:1,2014-08-07T03:12:00Z,29.8672,-93.9310,1.381,1111122 
TCOON,ioos:station:TCOON:524:1,2014-08-07T04:12:00Z,29.8672,-93.9310,1.446,1111122 
TCOON,ioos:station:TCOON:524:1,2014-08-07T05:12:00Z,29.8672,-93.9310,1.513,1111122 
TCOON,ioos:station:TCOON:524:1,2014-08-07T06:36:00Z,29.8672,-93.9310,1.579,1111122 
TCOON,ioos:station:TCOON:524:1,2014-08-07T07:12:00Z,29.8672,-93.9310,1.614,1111122 
TCOON,ioos:station:TCOON:524:1,2014-08-07T08:12:00Z,29.8672,-93.9310,1.632,1111122 
TCOON,ioos:station:TCOON:524:1,2014-08-07T09:12:00Z,29.8672,-93.9310,1.682,1111122 
TCOON,ioos:station:TCOON:524:1,2014-08-07T10:12:00Z,29.8672,-93.9310,1.69,1111122 
TCOON,ioos:station:TCOON:524:1,2014-08-07T11:12:00Z,29.8672,-93.9310,1.69,1111122 
TCOON,ioos:station:TCOON:524:1,2014-08-07T12:06:00Z,29.8672,-93.9310,1.712,1111122 
TCOON,ioos:station:TCOON:524:1,2014-08-07T13:06:00Z,29.8672,-93.9310,1.674,1111122 
TCOON,ioos:station:TCOON:524:1,2014-08-07T14:12:00Z,29.8672,-93.9310,1.781,1111122 
TCOON,ioos:station:TCOON:524:1,2014-08-07T15:12:00Z,29.8672,-93.9310,1.698,1111122 
TCOON,ioos:station:TCOON:524:1,2014-08-07T16:12:00Z,29.8672,-93.9310,1.72,1111122 
TCOON,ioos:station:TCOON:524:1,2014-08-07T17:12:00Z,29.8672,-93.9310,1.731,1111122 
TCOON,ioos:station:TCOON:524:1,2014-08-07T18:12:00Z,29.8672,-93.9310,1.701,1111122 
TCOON,ioos:station:TCOON:524:1,2014-08-07T19:12:00Z,29.8672,-93.9310,1.726,1111122 
TCOON,ioos:station:TCOON:524:1,2014-08-07T20:12:00Z,29.8672,-93.9310,1.69,1111122 
TCOON,ioos:station:TCOON:524:1,2014-08-07T21:12:00Z,29.8672,-93.9310,1.551,1111122 
TCOON,ioos:station:TCOON:524:1,2014-08-07T22:12:00Z,29.8672,-93.9310,1.496,1111122 
TCOON,ioos:station:TCOON:524:1,2014-08-07T23:18:00Z,29.8672,-93.9310,1.445,1111122 
TCOON,ioos:station:TCOON:524:1,2014-08-08T00:12:00Z,29.8672,-93.9310,1.389,1111122 
TCOON,ioos:station:TCOON:524:1,2014-08-08T01:12:00Z,29.8672,-93.9310,1.327,1111122 
TCOON,ioos:station:TCOON:524:1,2014-08-08T02:06:00Z,29.8672,-93.9310,1.324,1111122 
TCOON,ioos:station:TCOON:524:1,2014-08-08T03:12:00Z,29.8672,-93.9310,1.364,1111122 
TCOON,ioos:station:TCOON:524:1,2014-08-08T04:12:00Z,29.8672,-93.9310,1.373,1111122 
TCOON,ioos:station:TCOON:524:1,2014-08-08T05:12:00Z,29.8672,-93.9310,1.419,1111122 
TCOON,ioos:station:TCOON:524:1,2014-08-08T06:36:00Z,29.8672,-93.9310,1.543,1111122 
TCOON,ioos:station:TCOON:524:1,2014-08-08T07:12:00Z,29.8672,-93.9310,1.59,1111122 
TCOON,ioos:station:TCOON:524:1,2014-08-08T08:12:00Z,29.8672,-93.9310,1.636,1111122 
TCOON,ioos:station:TCOON:524:1,2014-08-08T09:12:00Z,29.8672,-93.9310,1.64,1111122 
TCOON,ioos:station:TCOON:524:1,2014-08-08T10:12:00Z,29.8672,-93.9310,1.662,1111122 
TCOON,ioos:station:TCOON:524:1,2014-08-08T11:12:00Z,29.8672,-93.9310,1.669,1111122 
TCOON,ioos:station:TCOON:524:1,2014-08-08T12:12:00Z,29.8672,-93.9310,1.687,1111122 
TCOON,ioos:station:TCOON:524:1,2014-08-08T13:12:00Z,29.8672,-93.9310,1.682,1111122 
TCOON,ioos:station:TCOON:524:1,2014-08-08T14:12:00Z,29.8672,-93.9310,1.684,1111122 
TCOON,ioos:station:TCOON:524:1,2014-08-08T15:12:00Z,29.8672,-93.9310,1.691,1111122 
TCOON,ioos:station:TCOON:524:1,2014-08-08T16:12:00Z,29.8672,-93.9310,1.681,1111122 
TCOON,ioos:station:TCOON:524:1,2014-08-08T17:12:00Z,29.8672,-93.9310,1.693,1111122 
TCOON,ioos:station:TCOON:524:1,2014-08-08T18:12:00Z,29.8672,-93.9310,1.723,1111122 
TCOON,ioos:station:TCOON:524:1,2014-08-08T19:42:00Z,29.8672,-93.9310,1.711,1111122 
TCOON,ioos:station:TCOON:524:1,2014-08-08T20:12:00Z,29.8672,-93.9310,1.695,1111122 
TCOON,ioos:station:TCOON:524:1,2014-08-08T21:12:00Z,29.8672,-93.9310,1.683,1111122 
TCOON,ioos:station:TCOON:524:1,2014-08-08T22:12:00Z,29.8672,-93.9310,1.609,1111122 
TCOON,ioos:station:TCOON:524:1,2014-08-08T23:12:00Z,29.8672,-93.9310,1.507,1111122 
TCOON,ioos:station:TCOON:524:1,2014-08-09T00:12:00Z,29.8672,-93.9310,1.432,1111122 
TCOON,ioos:station:TCOON:524:1,2014-08-09T01:12:00Z,29.8672,-93.9310,1.37,1111122 
TCOON,ioos:station:TCOON:524:1,2014-08-09T02:12:00Z,29.8672,-93.9310,1.338,1111122 
TCOON,ioos:station:TCOON:524:1,2014-08-09T03:12:00Z,29.8672,-93.9310,1.301,1111122 
TCOON,ioos:station:TCOON:524:1,2014-08-09T04:12:00Z,29.8672,-93.9310,1.321,1111122 
TCOON,ioos:station:TCOON:524:1,2014-08-09T05:12:00Z,29.8672,-93.9310,1.368,1111122 
TCOON,ioos:station:TCOON:524:1,2014-08-09T06:12:00Z,29.8672,-93.9310,1.425,1111122 
TCOON,ioos:station:TCOON:524:1,2014-08-09T07:12:00Z,29.8672,-93.9310,1.493,1111122 
TCOON,ioos:station:TCOON:524:1,2014-08-09T08:12:00Z,29.8672,-93.9310,1.596,1111122 
TCOON,ioos:station:TCOON:524:1,2014-08-09T09:12:00Z,29.8672,-93.9310,1.602,1111122 
TCOON,ioos:station:TCOON:524:1,2014-08-09T10:12:00Z,29.8672,-93.9310,1.623,1111122 
TCOON,ioos:station:TCOON:524:1,2014-08-09T11:12:00Z,29.8672,-93.9310,1.629,1111122 
TCOON,ioos:station:TCOON:524:1,2014-08-09T12:12:00Z,29.8672,-93.9310,1.628,1111122 
TCOON,ioos:station:TCOON:524:1,2014-08-09T13:12:00Z,29.8672,-93.9310,1.639,1111122 
TCOON,ioos:station:TCOON:524:1,2014-08-09T14:12:00Z,29.8672,-93.9310,1.657,1111122 
TCOON,ioos:station:TCOON:524:1,2014-08-09T15:12:00Z,29.8672,-93.9310,1.631,1111122 
TCOON,ioos:station:TCOON:524:1,2014-08-09T16:12:00Z,29.8672,-93.9310,1.649,1111122 
TCOON,ioos:station:TCOON:524:1,2014-08-09T17:12:00Z,29.8672,-93.9310,1.631,1111122 
TCOON,ioos:station:TCOON:524:1,2014-08-09T18:18:00Z,29.8672,-93.9310,1.687,1111122 
TCOON,ioos:station:TCOON:524:1,2014-08-09T19:12:00Z,29.8672,-93.9310,1.62,1111122 
TCOON,ioos:station:TCOON:524:1,2014-08-09T20:12:00Z,29.8672,-93.9310,1.631,1111122 
TCOON,ioos:station:TCOON:524:1,2014-08-09T21:12:00Z,29.8672,-93.9310,1.717,1111122 
TCOON,ioos:station:TCOON:524:1,2014-08-09T22:12:00Z,29.8672,-93.9310,1.657,1111122 
TCOON,ioos:station:TCOON:524:1,2014-08-09T23:12:00Z,29.8672,-93.9310,1.606,1111122 
TCOON,ioos:station:TCOON:524:1,2014-08-10T00:12:00Z,29.8672,-93.9310,1.467,1111122 
TCOON,ioos:station:TCOON:524:1,2014-08-10T01:06:00Z,29.8672,-93.9310,1.427,1111122 
TCOON,ioos:station:TCOON:524:1,2014-08-10T02:12:00Z,29.8672,-93.9310,1.367,1111122 
TCOON,ioos:station:TCOON:524:1,2014-08-10T03:12:00Z,29.8672,-93.9310,1.315,1111122 
TCOON,ioos:station:TCOON:524:1,2014-08-10T04:12:00Z,29.8672,-93.9310,1.299,1111122 
TCOON,ioos:station:TCOON:524:1,2014-08-10T05:12:00Z,29.8672,-93.9310,1.319,1111122 
TCOON,ioos:station:TCOON:524:1,2014-08-10T06:42:00Z,29.8672,-93.9310,1.397,1111122 
TCOON,ioos:station:TCOON:524:1,2014-08-10T07:12:00Z,29.8672,-93.9310,1.452,1111122 
TCOON,ioos:station:TCOON:524:1,2014-08-10T08:12:00Z,29.8672,-93.9310,1.526,1111122 
TCOON,ioos:station:TCOON:524:1,2014-08-10T09:12:00Z,29.8672,-93.9310,1.598,1111122 
TCOON,ioos:station:TCOON:524:1,2014-08-10T10:12:00Z,29.8672,-93.9310,1.622,1111122 
TCOON,ioos:station:TCOON:524:1,2014-08-10T11:12:00Z,29.8672,-93.9310,1.637,1111122 
TCOON,ioos:station:TCOON:524:1,2014-08-10T12:12:00Z,29.8672,-93.9310,1.646,1111122 
TCOON,ioos:station:TCOON:524:1,2014-08-10T13:06:00Z,29.8672,-93.9310,1.668,1111122 
TCOON,ioos:station:TCOON:524:1,2014-08-10T14:12:00Z,29.8672,-93.9310,1.649,1111122 
TCOON,ioos:station:TCOON:524:1,2014-08-10T15:12:00Z,29.8672,-93.9310,1.655,1111122 
TCOON,ioos:station:TCOON:524:1,2014-08-10T16:30:00Z,29.8672,-93.9310,1.606,1111122 
TCOON,ioos:station:TCOON:524:1,2014-08-10T17:12:00Z,29.8672,-93.9310,1.644,1111122 
TCOON,ioos:station:TCOON:524:1,2014-08-10T18:12:00Z,29.8672,-93.9310,1.651,1111122 
TCOON,ioos:station:TCOON:524:1,2014-08-10T19:12:00Z,29.8672,-93.9310,1.645,1111122 
TCOON,ioos:station:TCOON:524:1,2014-08-10T20:24:00Z,29.8672,-93.9310,1.69,1111122 
TCOON,ioos:station:TCOON:524:1,2014-08-10T21:12:00Z,29.8672,-93.9310,1.703,1111122 
TCOON,ioos:station:TCOON:524:1,2014-08-10T22:12:00Z,29.8672,-93.9310,1.699,1111122 
TCOON,ioos:station:TCOON:524:1,2014-08-10T23:12:00Z,29.8672,-93.9310,1.696,1111122 
TCOON,ioos:station:TCOON:524:1,2014-08-11T00:12:00Z,29.8672,-93.9310,1.63,1111122 
TCOON,ioos:station:TCOON:524:1,2014-08-11T01:12:00Z,29.8672,-93.9310,1.544,1111122 
TCOON,ioos:station:TCOON:524:1,2014-08-11T02:12:00Z,29.8672,-93.9310,1.455,1111122 
TCOON,ioos:station:TCOON:524:1,2014-08-11T03:12:00Z,29.8672,-93.9310,1.373,1111122 
TCOON,ioos:station:TCOON:524:1,2014-08-11T04:12:00Z,29.8672,-93.9310,1.354,1111122 
TCOON,ioos:station:TCOON:524:1,2014-08-11T05:12:00Z,29.8672,-93.9310,1.338,1111122 
TCOON,ioos:station:TCOON:524:1,2014-08-11T06:12:00Z,29.8672,-93.9310,1.381,1111122 
TCOON,ioos:station:TCOON:524:1,2014-08-11T07:12:00Z,29.8672,-93.9310,1.432,1111122 
TCOON,ioos:station:TCOON:524:1,2014-08-11T08:12:00Z,29.8672,-93.9310,1.487,1111122 
TCOON,ioos:station:TCOON:524:1,2014-08-11T09:12:00Z,29.8672,-93.9310,1.587,1111122 
TCOON,ioos:station:TCOON:524:1,2014-08-11T10:12:00Z,29.8672,-93.9310,1.635,1111122 
TCOON,ioos:station:TCOON:524:1,2014-08-11T11:12:00Z,29.8672,-93.9310,1.652,1111122 
TCOON,ioos:station:TCOON:524:1,2014-08-11T12:12:00Z,29.8672,-93.9310,1.643,1111122 
TCOON,ioos:station:TCOON:524:1,2014-08-11T13:12:00Z,29.8672,-93.9310,1.646,1111122 
TCOON,ioos:station:TCOON:524:1,2014-08-11T14:12:00Z,29.8672,-93.9310,1.638,1111122 
TCOON,ioos:station:TCOON:524:1,2014-08-11T15:12:00Z,29.8672,-93.9310,1.639,1111122 
TCOON,ioos:station:TCOON:524:1,2014-08-11T16:12:00Z,29.8672,-93.9310,1.621,1111122 
TCOON,ioos:station:TCOON:524:1,2014-08-11T17:18:00Z,29.8672,-93.9310,1.587,1111122 
TCOON,ioos:station:TCOON:524:1,2014-08-11T18:06:00Z,29.8672,-93.9310,1.606,1111122 
TCOON,ioos:station:TCOON:524:1,2014-08-11T19:12:00Z,29.8672,-93.9310,1.619,1111122 
TCOON,ioos:station:TCOON:524:1,2014-08-11T20:12:00Z,29.8672,-93.9310,1.653,1111122 
TCOON,ioos:station:TCOON:524:1,2014-08-12T00:06:00Z,29.8672,-93.9310,1.705,1111122 
TCOON,ioos:station:TCOON:524:1,2014-08-12T01:06:00Z,29.8672,-93.9310,1.67,1111122 
TCOON,ioos:station:TCOON:524:1,2014-08-12T02:12:00Z,29.8672,-93.9310,1.605,1111122 
TCOON,ioos:station:TCOON:524:1,2014-08-12T03:12:00Z,29.8672,-93.9310,1.476,1111122 
TCOON,ioos:station:TCOON:524:1,2014-08-12T04:12:00Z,29.8672,-93.9310,1.451,1111122 
TCOON,ioos:station:TCOON:524:1,2014-08-12T05:12:00Z,29.8672,-93.9310,1.394,1111122 
TCOON,ioos:station:TCOON:524:1,2014-08-12T06:36:00Z,29.8672,-93.9310,1.456,1111122 
TCOON,ioos:station:TCOON:524:1,2014-08-12T07:12:00Z,29.8672,-93.9310,1.413,1111122 
TCOON,ioos:station:TCOON:524:1,2014-08-12T08:06:00Z,29.8672,-93.9310,1.431,1111122 
TCOON,ioos:station:TCOON:524:1,2014-08-12T09:12:00Z,29.8672,-93.9310,1.503,1111122 
TCOON,ioos:station:TCOON:524:1,2014-08-12T10:12:00Z,29.8672,-93.9310,1.521,1111122 
TCOON,ioos:station:TCOON:524:1,2014-08-12T11:12:00Z,29.8672,-93.9310,1.653,1111122 
TCOON,ioos:station:TCOON:524:1,2014-08-12T12:12:00Z,29.8672,-93.9310,1.676,1111122 
TCOON,ioos:station:TCOON:524:1,2014-08-12T13:24:00Z,29.8672,-93.9310,1.62,1111122 
TCOON,ioos:station:TCOON:524:1,2014-08-12T16:12:00Z,29.8672,-93.9310,1.568,1111122 
TCOON,ioos:station:TCOON:524:1,2014-08-12T17:12:00Z,29.8672,-93.9310,1.528,1111122 
TCOON,ioos:station:TCOON:524:1,2014-08-19T14:12:00Z,29.8672,-93.9310,1.657,1111122 
TCOON,ioos:station:TCOON:524:1,2014-08-19T15:12:00Z,29.8672,-93.9310,1.684,1111122 
TCOON,ioos:station:TCOON:524:1,2014-08-19T16:12:00Z,29.8672,-93.9310,1.711,1111122 
TCOON,ioos:station:TCOON:524:1,2014-08-19T17:12:00Z,29.8672,-93.9310,1.643,1111122 
TCOON,ioos:station:TCOON:524:1,2014-08-19T18:12:00Z,29.8672,-93.9310,1.643,1111122 
TCOON,ioos:station:TCOON:524:1,2014-08-19T19:12:00Z,29.8672,-93.9310,1.63,1111122 
TCOON,ioos:station:TCOON:524:1,2014-08-19T20:12:00Z,29.8672,-93.9310,1.609,1111122 
TCOON,ioos:station:TCOON:524:1,2014-08-19T21:12:00Z,29.8672,-93.9310,1.533,1111122 